Weather History for Mount Carmel, IL

Change the Weather History Date:

Thursday, April 10, 2014

  Actual Average (KLWV) Record (KLWV)
Temperature  
Mean Temperature 66 °F 54 °F  
Max Temperature 80 °F 65 °F 85 °F (2013)
Min Temperature 51 °F 43 °F 28 °F (2007)
Degree Days  
Heating Degree Days 0 12  
Month to date heating degree days 132  
Since 1 July heating degree days 4429  
Cooling Degree Days 0 1  
Month to date cooling degree days 4  
Year to date cooling degree days 6  
Growing Degree Days 16 (Base 50)    
Moisture  
Dew Point 43 °F    
Average Humidity 44    
Maximum Humidity 62    
Minimum Humidity 26    
Precipitation  
Precipitation 0.00 in 0.12 in 0.79 in (1990)
Month to date precipitation 1.12  
Year to date precipitation 8.94  
Sea Level Pressure  
Sea Level Pressure 29.91 in    
Wind  
Wind Speed 14 mph (SSW)    
Max Wind Speed 30 mph    
Max Gust Speed 37 mph    
Visibility 10 miles    
Events Thunderstorm    
T = Trace of Precipitation, MM = Missing Value Source: NWS Daily Summary

Daily Weather History Graph

Daily Weather History Graph

Search for Another Location

Airport:

Trip Planner

Search our weather history database for the weather conditions in past years. The results will help you decide how hot, cold, wet, or windy it might be!

Date:

Astronomy

Apr. 10, 2014 Rise Set
Actual Time 6:22 AM CDT 7:22 PM CDT
Civil Twilight 5:54 AM CDT 7:50 PM CDT
Nautical Twilight 5:22 AM CDT 8:22 PM CDT
Astronomical Twilight 4:49 AM CDT 8:56 PM CDT
Moon 3:09 PM CDT (4/10) 3:41 AM CDT (4/10)
Length of Visible Light 13h 55m
Length of Day
13h 00m
Waxing Gibbous, 80% of the Moon is Illuminated
Apr 10
Waxing Gibbous
Apr 15
Full
Apr 22
Last Quarter
Apr 29
New
May 6
First Quarter

Hourly Weather History & Observations

Time (CDT) Temp. Dew Point Humidity Pressure Visibility Wind Dir Wind Speed Gust Speed Precip Events Conditions
12:35 AM 51.8 °F 37.4 °F 58% 30.03 in 10.0 mi SSW 9.2 mph - N/A   Clear
12:55 AM 51.8 °F 37.4 °F 58% 30.02 in 10.0 mi SSW 9.2 mph - N/A   Clear
1:15 AM 51.8 °F 37.4 °F 58% 30.02 in 10.0 mi SSW 10.4 mph - N/A   Clear
1:35 AM 53.6 °F 37.4 °F 54% 30.01 in 10.0 mi SSW 12.7 mph - N/A   Clear
1:55 AM 53.6 °F 37.4 °F 54% 30.01 in 10.0 mi SSW 12.7 mph - N/A   Clear
2:15 AM 53.6 °F 37.4 °F 54% 30.01 in 10.0 mi SSW 10.4 mph - N/A   Clear
2:35 AM 53.6 °F 37.4 °F 54% 30.00 in 10.0 mi SSW 11.5 mph - N/A   Clear
2:55 AM 53.6 °F 37.4 °F 54% 29.99 in 10.0 mi SSW 11.5 mph - N/A   Clear
3:15 AM 53.6 °F 37.4 °F 54% 29.98 in 10.0 mi SSW 12.7 mph - N/A   Clear
3:55 AM 51.8 °F 37.4 °F 58% 29.98 in 10.0 mi SSW 11.5 mph - N/A   Clear
4:15 AM 51.8 °F 37.4 °F 58% 29.97 in 10.0 mi SSW 10.4 mph - N/A   Clear
4:35 AM 51.8 °F 37.4 °F 58% 29.97 in 10.0 mi SSW 9.2 mph - N/A   Clear
4:55 AM 51.8 °F 37.4 °F 58% 29.98 in 10.0 mi South 8.1 mph - N/A   Clear
5:15 AM 51.8 °F 37.4 °F 58% 29.97 in 10.0 mi South 9.2 mph - N/A   Clear
5:35 AM 51.8 °F 39.2 °F 62% 29.97 in 10.0 mi South 8.1 mph - N/A   Clear
5:55 AM 51.8 °F 39.2 °F 62% 29.97 in 10.0 mi South 9.2 mph - N/A   Clear
6:15 AM 51.8 °F 39.2 °F 62% 29.97 in 10.0 mi South 10.4 mph - N/A   Clear
6:35 AM 51.8 °F 39.2 °F 62% 29.97 in 10.0 mi South 9.2 mph - N/A   Clear
7:15 AM 53.6 °F 41.0 °F 62% 29.97 in 10.0 mi South 11.5 mph - N/A   Clear
7:35 AM 53.6 °F 41.0 °F 62% 29.96 in 10.0 mi South 12.7 mph - N/A   Clear
7:55 AM 55.4 °F 41.0 °F 58% 29.96 in 10.0 mi South 15.0 mph - N/A   Clear
8:15 AM 55.4 °F 41.0 °F 58% 29.96 in 10.0 mi South 13.8 mph - N/A   Clear
8:35 AM 59.0 °F 41.0 °F 51% 29.96 in 10.0 mi SSW 13.8 mph - N/A   Clear
8:55 AM 59.0 °F 41.0 °F 51% 29.94 in 10.0 mi SSW 17.3 mph - N/A   Clear
9:15 AM 60.8 °F 41.0 °F 48% 29.94 in 10.0 mi South 16.1 mph 25.3 mph N/A   Clear
9:35 AM 62.6 °F 42.8 °F 48% 29.93 in 10.0 mi South 15.0 mph 23.0 mph N/A   Clear
9:55 AM 64.4 °F 41.0 °F 42% 29.93 in 10.0 mi SSW 20.7 mph 29.9 mph N/A   Clear
10:15 AM 68.0 °F 42.8 °F 40% 29.92 in 10.0 mi SSW 21.9 mph 26.5 mph N/A   Clear
10:35 AM 68.0 °F 41.0 °F 37% 29.90 in 10.0 mi SSW 23.0 mph 31.1 mph N/A   Clear
10:55 AM 68.0 °F 42.8 °F 40% 29.89 in 10.0 mi SSW 25.3 mph 33.4 mph N/A   Clear
11:15 AM 69.8 °F 42.8 °F 38% 29.88 in 10.0 mi SSW 26.5 mph 36.8 mph N/A   Clear
11:35 AM 69.8 °F 42.8 °F 38% 29.88 in 10.0 mi SSW 27.6 mph 32.2 mph N/A   Clear
11:55 AM 69.8 °F 42.8 °F 38% 29.90 in 10.0 mi SSW 24.2 mph 33.4 mph N/A   Clear
12:15 PM 71.6 °F 44.6 °F 38% 29.89 in 10.0 mi SSW 21.9 mph 31.1 mph N/A   Clear
12:35 PM 73.4 °F 44.6 °F 36% 29.88 in 10.0 mi SSW 23.0 mph 28.8 mph N/A   Clear
12:55 PM 73.4 °F 44.6 °F 36% 29.87 in 10.0 mi SSW 25.3 mph 31.1 mph N/A   Clear
1:15 PM 75.2 °F 44.6 °F 34% 29.86 in 10.0 mi SSW 21.9 mph 29.9 mph N/A   Clear
1:35 PM 77.0 °F 44.6 °F 32% 29.85 in 10.0 mi SSW 25.3 mph 29.9 mph N/A   Clear
1:55 PM 77.0 °F 44.6 °F 32% 29.85 in 10.0 mi SW 23.0 mph 33.4 mph N/A   Clear
2:15 PM 78.8 °F 42.8 °F 28% 29.83 in 10.0 mi SSW 29.9 mph 36.8 mph N/A   Clear
2:35 PM 78.8 °F 44.6 °F 30% 29.83 in 10.0 mi SW 25.3 mph 34.5 mph N/A   Clear
2:55 PM 78.8 °F 44.6 °F 30% 29.82 in 10.0 mi SW 25.3 mph 31.1 mph N/A   Clear
3:15 PM 78.8 °F 44.6 °F 30% 29.81 in 10.0 mi SSW 23.0 mph 32.2 mph N/A   Clear
3:35 PM 78.8 °F 44.6 °F 30% 29.81 in 10.0 mi SW 23.0 mph 32.2 mph N/A   Clear
3:55 PM 78.8 °F 44.6 °F 30% 29.81 in 10.0 mi SSW 21.9 mph 31.1 mph N/A   Clear
4:15 PM 80.6 °F 46.4 °F 30% 29.82 in 10.0 mi SW 18.4 mph 27.6 mph N/A   Clear
4:35 PM 80.6 °F 42.8 °F 26% 29.82 in 10.0 mi SW 25.3 mph 33.4 mph N/A   Clear
4:55 PM 78.8 °F 42.8 °F 28% 29.82 in 10.0 mi SW 24.2 mph 35.7 mph N/A   Clear
5:15 PM 78.8 °F 42.8 °F 28% 29.83 in 10.0 mi SW 21.9 mph 34.5 mph N/A   Clear
5:35 PM 77.0 °F 42.8 °F 29% 29.83 in 10.0 mi SW 18.4 mph 33.4 mph N/A   Clear
5:55 PM 77.0 °F 44.6 °F 32% 29.84 in 10.0 mi SW 16.1 mph 24.2 mph N/A   Clear
6:15 PM 77.0 °F 44.6 °F 32% 29.84 in 10.0 mi SW 19.6 mph 23.0 mph N/A   Clear
6:35 PM 75.2 °F 44.6 °F 34% 29.85 in 10.0 mi SW 12.7 mph 20.7 mph N/A   Clear
6:55 PM 75.2 °F 44.6 °F 34% 29.86 in 10.0 mi SW 13.8 mph - N/A   Clear
7:15 PM 73.4 °F 44.6 °F 36% 29.87 in 10.0 mi SW 13.8 mph 18.4 mph N/A   Clear
7:35 PM 73.4 °F 44.6 °F 36% 29.87 in 10.0 mi SW 17.3 mph 23.0 mph N/A   Clear
7:55 PM 73.4 °F 44.6 °F 36% 29.88 in 10.0 mi SW 18.4 mph 24.2 mph N/A   Clear
8:15 PM 71.6 °F 44.6 °F 38% 29.89 in 10.0 mi SW 16.1 mph 25.3 mph N/A   Clear
8:35 PM 71.6 °F 46.4 °F 41% 29.90 in 10.0 mi WSW 15.0 mph - N/A   Clear
8:55 PM 71.6 °F 46.4 °F 41% 29.91 in 10.0 mi WSW 16.1 mph 21.9 mph N/A   Mostly Cloudy
9:15 PM 71.6 °F 46.4 °F 41% 29.91 in 10.0 mi SW 13.8 mph - N/A   Overcast
9:35 PM 71.6 °F 46.4 °F 41% 29.91 in 10.0 mi SW 13.8 mph 20.7 mph N/A   Mostly Cloudy
9:55 PM 71.6 °F 46.4 °F 41% 29.92 in 10.0 mi WSW 13.8 mph - N/A   Mostly Cloudy
10:15 PM 71.6 °F 46.4 °F 41% 29.93 in 10.0 mi WSW 13.8 mph - N/A Thunderstorm Overcast
10:35 PM 69.8 °F 50.0 °F 49% 29.94 in 10.0 mi WSW 11.5 mph - N/A   Overcast
10:55 PM 71.6 °F 48.2 °F 43% 29.93 in 10.0 mi SW 11.5 mph - N/A   Overcast
11:15 PM 71.6 °F 48.2 °F 43% 29.94 in 10.0 mi SW 9.2 mph - N/A   Overcast
11:35 PM 68.0 °F 50.0 °F 52% 29.94 in 10.0 mi SSE 4.6 mph - N/A   Overcast
11:55 PM 68.0 °F 48.2 °F 49% 29.94 in 10.0 mi South 6.9 mph - N/A   Overcast